College Station, TX

11:28 PM CDT on April 25, 2017 (GMT -0500)
Easterwood

Weather History for KCLL - October, 2014

Change the Weather History Date:

Sunday, October 5, 2014

  Actual Average Record
Temperature  
Mean Temperature 71 °F 74 °F  
Max Temperature 85 °F 85 °F 97 °F (1912)
Min Temperature 57 °F 63 °F 45 °F (1932)
Degree Days  
Heating Degree Days 0 0  
Month to date heating degree days 0 0  
Since 1 July heating degree days 0 2  
Cooling Degree Days 6 9  
Month to date cooling degree days 51 49  
Year to date cooling degree days 2731 2845  
Growing Degree Days 20 (Base 50)    
Moisture  
Dew Point 57 °F    
Average Humidity 62    
Maximum Humidity 80    
Minimum Humidity 43    
Precipitation  
Precipitation 0.00 in 0.14 in 2.36 in (2003)
Month to date precipitation 0.66 0.71  
Year to date precipitation 30.00 29.41  
Sea Level Pressure  
Sea Level Pressure 29.93 in    
Wind  
Wind Speed 10 mph (SSE)    
Max Wind Speed 18 mph    
Max Gust Speed 25 mph    
Visibility 10 miles    
Events      
T = Trace of Precipitation, MM = Missing Value Source: NWS Daily Summary

Daily Weather History Graph

Daily Weather History Graph

Search for Another Location

Airport or City:

Trip Planner

Search our weather history database for the weather conditions in past years. The results will help you decide how hot, cold, wet, or windy it might be!

Date:

Astronomy

Oct. 05, 2014 Rise Set
Actual Time 7:21 AM CDT 7:05 PM CDT
Civil Twilight 6:57 AM CDT 7:29 PM CDT
Nautical Twilight 6:29 AM CDT 7:57 PM CDT
Astronomical Twilight 6:01 AM CDT 8:25 PM CDT
Moon 5:13 PM CDT (10/5) 4:12 AM CDT (10/5)
Length of Visible Light 12h 32m
Length of Day
11h 44m
Waxing Gibbous, 89% of the Moon is Illuminated
Oct 5
Waxing Gibbous
Oct 8
Full
Oct 15
Last Quarter
Oct 23
New
Oct 30
First Quarter

Hourly Weather History & Observations

Time (CDT) Temp. Heat Index Dew Point Humidity Pressure Visibility Wind Dir Wind Speed Gust Speed Precip Events Conditions
12:53 AM 61.0 °F - 51.1 °F 70% 29.99 in 10.0 mi SE 5.8 mph - N/A   Clear
1:53 AM 59.0 °F - 51.1 °F 75% 30.00 in 10.0 mi SE 5.8 mph - N/A   Clear
2:53 AM 57.9 °F - 51.1 °F 78% 29.99 in 10.0 mi ESE 4.6 mph - N/A   Clear
3:53 AM 57.0 °F - 51.1 °F 81% 29.98 in 10.0 mi ESE 5.8 mph - N/A   Clear
4:53 AM 57.0 °F - 51.1 °F 81% 29.98 in 10.0 mi SSE 3.5 mph - N/A   Clear
5:53 AM 57.0 °F - 51.1 °F 81% 29.98 in 10.0 mi SE 5.8 mph - N/A   Clear
6:53 AM 57.9 °F - 52.0 °F 81% 29.98 in 10.0 mi SSE 6.9 mph - N/A   Clear
7:53 AM 59.0 °F - 53.1 °F 81% 29.97 in 10.0 mi SSE 8.1 mph - N/A   Clear
8:53 AM 66.2 °F - 55.4 °F 68% 30.00 in 10.0 mi SSE 8.1 mph - N/A   Clear
9:53 AM 72.0 °F - 59.0 °F 64% 30.00 in 10.0 mi SSE 11.5 mph - N/A   Clear
10:53 AM 75.0 °F - 59.0 °F 57% 29.99 in 10.0 mi South 15.0 mph 20.7 mph N/A   Clear
11:53 AM 78.1 °F - 61.0 °F 56% 29.97 in 10.0 mi South 16.1 mph 21.9 mph N/A   Clear
12:53 PM 80.1 °F 80.9 °F 60.1 °F 50% 29.94 in 10.0 mi SSW 17.3 mph 25.3 mph N/A   Clear
1:53 PM 82.0 °F 82.4 °F 60.1 °F 47% 29.91 in 10.0 mi South 12.7 mph 23.0 mph 0.00 in   Clear
2:53 PM 82.9 °F 83.2 °F 60.1 °F 46% 29.88 in 10.0 mi South 12.7 mph - N/A   Clear
3:53 PM 84.0 °F 83.8 °F 59.0 °F 43% 29.86 in 10.0 mi South 13.8 mph - N/A   Partly Cloudy
4:53 PM 84.9 °F 84.8 °F 60.1 °F 43% 29.85 in 10.0 mi SSE 12.7 mph - N/A   Scattered Clouds
5:53 PM 82.9 °F 83.3 °F 61.0 °F 47% 29.84 in 10.0 mi SSE 11.5 mph - N/A   Clear
6:53 PM 79.0 °F - 61.0 °F 54% 29.84 in 10.0 mi SSE 11.5 mph - N/A   Clear
7:53 PM 75.9 °F - 61.0 °F 60% 29.83 in 10.0 mi SSE 11.5 mph - N/A   Clear
8:53 PM 73.9 °F - 62.1 °F 66% 29.85 in 10.0 mi SSE 12.7 mph - N/A   Clear
9:53 PM 73.9 °F - 62.1 °F 66% 29.87 in 10.0 mi SSE 11.5 mph - N/A   Clear
10:53 PM 72.0 °F - 63.0 °F 73% 29.88 in 10.0 mi SSE 8.1 mph - N/A   Clear
11:53 PM 70.0 °F - 63.0 °F 78% 29.88 in 10.0 mi SSE 4.6 mph - N/A   Clear